Time,TemperatureF,DewpointF,PressureIn,WindDirection,WindDirectionDegrees,WindSpeedMPH,WindSpeedGustMPH,Humidity,HourlyPrecipIn,Conditions,Clouds,dailyrainin,SoftwareType,DateUTC
2013-10-12 00:02:00,59.6,54.5,29.62,SSW,203,10.5,13.4,83,0.00,,,0.00,WUHU216HW,2013-10-12 05:02:00,
2013-10-12 00:07:00,59.2,53.7,29.63,SSW,203,12.1,15.9,82,0.00,,,0.00,WUHU216HW,2013-10-12 05:07:00,
2013-10-12 00:12:00,58.9,52.4,29.63,SSW,203,17.2,17.2,79,0.00,,,0.00,WUHU216HW,2013-10-12 05:12:00,
2013-10-12 00:17:00,58.7,51.5,29.63,SW,225,16.1,18.6,77,0.00,,,0.00,WUHU216HW,2013-10-12 05:17:00,
2013-10-12 00:22:00,58.1,50.2,29.63,SSW,203,16.3,19.2,75,0.00,,,0.00,WUHU216HW,2013-10-12 05:22:00,
2013-10-12 00:27:00,58.0,49.7,29.63,SSW,203,16.6,25.1,74,0.00,,,0.00,WUHU216HW,2013-10-12 05:27:00,
2013-10-12 00:32:00,57.4,49.1,29.64,SSW,203,19.0,25.1,74,0.00,,,0.00,WUHU216HW,2013-10-12 05:32:00,
2013-10-12 00:37:00,57.1,49.1,29.64,SW,225,17.7,20.8,75,0.00,,,0.00,WUHU216HW,2013-10-12 05:37:00,
2013-10-12 00:42:00,56.5,49.3,29.64,WSW,248,11.6,20.8,77,0.00,,,0.00,WUHU216HW,2013-10-12 05:42:00,
2013-10-12 00:47:00,56.2,49.3,29.64,SW,225,12.1,18.1,78,0.00,,,0.00,WUHU216HW,2013-10-12 05:47:00,
2013-10-12 00:52:00,55.8,49.0,29.65,SSW,203,10.5,14.8,78,0.00,,,0.00,WUHU216HW,2013-10-12 05:52:00,
2013-10-12 00:57:00,55.4,48.3,29.65,SW,225,19.7,19.7,77,0.00,,,0.00,WUHU216HW,2013-10-12 05:57:00,
2013-10-12 01:02:00,55.3,47.8,29.66,SW,225,11.9,19.7,76,0.00,,,0.00,WUHU216HW,2013-10-12 06:02:00,
2013-10-12 01:07:00,55.1,47.6,29.66,SW,225,16.3,17.7,76,0.00,,,0.00,WUHU216HW,2013-10-12 06:07:00,
2013-10-12 01:12:00,54.9,47.4,29.66,SW,225,12.1,18.1,76,0.00,,,0.00,WUHU216HW,2013-10-12 06:12:00,
2013-10-12 01:17:00,54.7,47.3,29.66,SW,225,15.0,18.8,76,0.00,,,0.00,WUHU216HW,2013-10-12 06:17:00,
2013-10-12 01:22:00,54.4,46.6,29.66,SW,225,13.4,18.8,75,0.00,,,0.00,WUHU216HW,2013-10-12 06:22:00,
2013-10-12 01:27:00,54.2,46.5,29.67,SW,225,12.3,16.8,75,0.00,,,0.00,WUHU216HW,2013-10-12 06:27:00,
2013-10-12 01:32:00,53.8,46.5,29.67,SW,225,9.8,16.8,76,0.00,,,0.00,WUHU216HW,2013-10-12 06:32:00,
2013-10-12 01:37:00,53.6,46.3,29.67,WSW,248,15.7,15.7,76,0.00,,,0.00,WUHU216HW,2013-10-12 06:37:00,
2013-10-12 01:42:00,53.6,46.3,29.67,SSW,203,11.6,15.7,76,0.00,,,0.00,WUHU216HW,2013-10-12 06:42:00,
2013-10-12 01:47:00,53.5,46.1,29.68,SW,225,10.5,14.5,76,0.00,,,0.00,WUHU216HW,2013-10-12 06:47:00,
2013-10-12 01:52:00,53.3,45.9,29.68,SW,225,8.7,14.5,76,0.00,,,0.00,WUHU216HW,2013-10-12 06:52:00,
2013-10-12 01:59:00,53.1,45.7,29.68,SSW,203,15.7,15.7,76,0.00,,,0.00,WUHU216HW,2013-10-12 06:59:00,
2013-10-12 02:04:00,53.3,45.9,29.68,WSW,248,9.8,15.7,76,0.00,,,0.00,WUHU216HW,2013-10-12 07:04:00,
2013-10-12 02:09:00,53.1,46.1,29.68,SW,225,10.1,11.4,77,0.00,,,0.00,WUHU216HW,2013-10-12 07:09:00,
2013-10-12 02:14:00,52.9,46.3,29.68,SSW,203,7.2,11.4,78,0.00,,,0.00,WUHU216HW,2013-10-12 07:14:00,
2013-10-12 02:19:00,52.6,45.9,29.68,SSW,203,6.9,9.4,78,0.00,,,0.00,WUHU216HW,2013-10-12 07:19:00,
2013-10-12 02:24:00,52.4,46.1,29.68,SSW,203,6.7,8.1,79,0.00,,,0.00,WUHU216HW,2013-10-12 07:24:00,
2013-10-12 02:30:00,52.4,46.1,29.68,SSW,203,6.0,8.1,79,0.00,,,0.00,WUHU216HW,2013-10-12 07:30:00,
2013-10-12 02:35:00,52.0,46.1,29.68,SW,225,9.8,9.8,80,0.00,,,0.00,WUHU216HW,2013-10-12 07:35:00,
2013-10-12 02:40:00,51.8,45.9,29.68,SW,225,8.9,11.0,80,0.00,,,0.00,WUHU216HW,2013-10-12 07:40:00,
2013-10-12 02:45:00,51.8,45.9,29.69,SSW,203,8.1,11.0,80,0.00,,,0.00,WUHU216HW,2013-10-12 07:45:00,
2013-10-12 02:50:00,51.7,45.7,29.69,SW,225,6.7,9.8,80,0.00,,,0.00,WUHU216HW,2013-10-12 07:50:00,
2013-10-12 02:55:00,51.5,45.5,29.69,SSW,203,6.9,9.8,80,0.00,,,0.00,WUHU216HW,2013-10-12 07:55:00,
2013-10-12 03:00:00,51.3,45.4,29.69,SSW,203,8.1,9.4,80,0.00,,,0.00,WUHU216HW,2013-10-12 08:00:00,
2013-10-12 03:05:00,51.1,45.2,29.69,SSW,203,8.3,9.4,80,0.00,,,0.00,WUHU216HW,2013-10-12 08:05:00,
2013-10-12 03:10:00,51.1,44.8,29.69,SSW,203,8.5,11.9,79,0.00,,,0.00,WUHU216HW,2013-10-12 08:10:00,
2013-10-12 03:15:00,50.9,45.0,29.68,South,180,6.9,11.9,80,0.00,,,0.00,WUHU216HW,2013-10-12 08:15:00,
2013-10-12 03:20:00,50.8,44.8,29.68,SSW,203,8.9,11.2,80,0.00,,,0.00,WUHU216HW,2013-10-12 08:20:00,
2013-10-12 03:25:00,50.8,44.5,29.69,SSW,203,10.7,11.2,79,0.00,,,0.00,WUHU216HW,2013-10-12 08:25:00,
2013-10-12 03:30:00,50.6,44.3,29.69,SSW,203,8.5,10.7,79,0.00,,,0.00,WUHU216HW,2013-10-12 08:30:00,
2013-10-12 03:35:00,50.4,44.1,29.69,SSW,203,8.7,10.5,79,0.00,,,0.00,WUHU216HW,2013-10-12 08:35:00,
2013-10-12 03:40:00,50.2,44.3,29.69,SSW,203,7.2,9.2,80,0.00,,,0.00,WUHU216HW,2013-10-12 08:40:00,
2013-10-12 03:45:00,50.0,44.1,29.70,SSW,203,7.8,9.2,80,0.00,,,0.00,WUHU216HW,2013-10-12 08:45:00,
2013-10-12 03:50:00,50.0,44.1,29.70,SSW,203,6.3,7.8,80,0.00,,,0.00,WUHU216HW,2013-10-12 08:50:00,
2013-10-12 03:55:00,49.9,43.9,29.70,SSW,203,7.2,8.3,80,0.00,,,0.00,WUHU216HW,2013-10-12 08:55:00,
2013-10-12 04:00:00,49.7,44.0,29.70,South,180,7.6,8.5,81,0.00,,,0.00,WUHU216HW,2013-10-12 09:00:00,
2013-10-12 04:05:00,49.7,44.0,29.71,South,180,8.5,8.5,81,0.00,,,0.00,WUHU216HW,2013-10-12 09:05:00,
2013-10-12 04:10:00,49.5,44.2,29.70,SSW,203,6.0,8.5,82,0.00,,,0.00,WUHU216HW,2013-10-12 09:10:00,
2013-10-12 04:15:00,49.3,44.0,29.70,SSW,203,7.6,7.6,82,0.00,,,0.00,WUHU216HW,2013-10-12 09:15:00,
2013-10-12 04:20:00,49.3,44.0,29.70,SSW,203,8.9,8.9,82,0.00,,,0.00,WUHU216HW,2013-10-12 09:20:00,
2013-10-12 04:25:00,49.1,43.8,29.70,SSW,203,7.6,8.9,82,0.00,,,0.00,WUHU216HW,2013-10-12 09:25:00,
2013-10-12 04:30:00,49.3,44.0,29.70,SSW,203,9.2,9.8,82,0.00,,,0.00,WUHU216HW,2013-10-12 09:30:00,
2013-10-12 04:35:00,49.1,43.8,29.70,SSW,203,7.2,9.8,82,0.00,,,0.00,WUHU216HW,2013-10-12 09:35:00,
2013-10-12 04:40:00,49.0,44.0,29.71,South,180,8.9,9.6,83,0.00,,,0.00,WUHU216HW,2013-10-12 09:40:00,
2013-10-12 04:45:00,49.1,43.8,29.71,SW,225,8.9,9.8,82,0.00,,,0.00,WUHU216HW,2013-10-12 09:45:00,
2013-10-12 04:50:00,49.1,43.8,29.70,SW,225,9.4,10.7,82,0.00,,,0.00,WUHU216HW,2013-10-12 09:50:00,
2013-10-12 04:55:00,49.0,44.0,29.70,SSW,203,6.9,10.7,83,0.00,,,0.00,WUHU216HW,2013-10-12 09:55:00,
2013-10-12 05:00:00,48.8,43.8,29.70,SSW,203,7.8,8.7,83,0.00,,,0.00,WUHU216HW,2013-10-12 10:00:00,
2013-10-12 05:05:00,48.8,43.8,29.70,SSW,203,9.6,9.6,83,0.00,,,0.00,WUHU216HW,2013-10-12 10:05:00,
2013-10-12 05:10:00,49.0,43.7,29.70,SSW,203,9.6,12.8,82,0.00,,,0.00,WUHU216HW,2013-10-12 10:10:00,
2013-10-12 05:15:00,49.0,43.7,29.71,SSW,203,10.3,12.8,82,0.00,,,0.00,WUHU216HW,2013-10-12 10:15:00,
2013-10-12 05:20:00,48.8,43.5,29.71,SSW,203,11.2,11.2,82,0.00,,,0.00,WUHU216HW,2013-10-12 10:20:00,
2013-10-12 05:25:00,48.8,43.5,29.71,SSW,203,8.5,12.5,82,0.00,,,0.00,WUHU216HW,2013-10-12 10:25:00,
2013-10-12 05:30:00,48.8,43.5,29.71,SSW,203,8.7,12.5,82,0.00,,,0.00,WUHU216HW,2013-10-12 10:30:00,
2013-10-12 05:35:00,48.6,43.3,29.71,South,180,9.8,9.8,82,0.00,,,0.00,WUHU216HW,2013-10-12 10:35:00,
2013-10-12 05:40:00,48.6,43.3,29.71,South,180,8.3,9.8,82,0.00,,,0.00,WUHU216HW,2013-10-12 10:40:00,
2013-10-12 05:45:00,48.6,43.7,29.71,South,180,6.9,8.5,83,0.00,,,0.00,WUHU216HW,2013-10-12 10:45:00,
2013-10-12 05:50:00,48.2,43.3,29.71,South,180,6.7,8.5,83,0.00,,,0.00,WUHU216HW,2013-10-12 10:50:00,
2013-10-12 05:55:00,48.2,42.9,29.71,SSW,203,9.8,10.5,82,0.00,,,0.00,WUHU216HW,2013-10-12 10:55:00,
2013-10-12 06:00:00,48.4,43.5,29.72,SSW,203,9.8,12.8,83,0.00,,,0.00,WUHU216HW,2013-10-12 11:00:00,
2013-10-12 06:05:00,48.2,42.9,29.72,South,180,7.6,12.8,82,0.00,,,0.00,WUHU216HW,2013-10-12 11:05:00,
2013-10-12 06:10:00,48.1,42.8,29.73,South,180,5.6,9.2,82,0.00,,,0.00,WUHU216HW,2013-10-12 11:10:00,
2013-10-12 06:15:00,47.9,42.9,29.73,South,180,8.7,9.2,83,0.00,,,0.00,WUHU216HW,2013-10-12 11:15:00,
2013-10-12 06:20:00,47.7,42.8,29.73,South,180,6.9,8.7,83,0.00,,,0.00,WUHU216HW,2013-10-12 11:20:00,
2013-10-12 06:25:00,47.7,43.1,29.73,South,180,9.6,9.6,84,0.00,,,0.00,WUHU216HW,2013-10-12 11:25:00,
2013-10-12 06:30:00,47.7,42.8,29.73,South,180,9.2,10.1,83,0.00,,,0.00,WUHU216HW,2013-10-12 11:30:00,
2013-10-12 06:35:00,47.5,42.9,29.74,SSW,203,9.2,10.3,84,0.00,,,0.00,WUHU216HW,2013-10-12 11:35:00,
2013-10-12 06:40:00,47.7,42.8,29.74,SSW,203,11.9,12.8,83,0.00,,,0.00,WUHU216HW,2013-10-12 11:40:00,
2013-10-12 06:45:00,47.7,42.8,29.74,SSW,203,7.4,12.8,83,0.00,,,0.00,WUHU216HW,2013-10-12 11:45:00,
2013-10-12 06:50:00,47.5,42.6,29.74,South,180,12.1,13.4,83,0.00,,,0.00,WUHU216HW,2013-10-12 11:50:00,
2013-10-12 06:55:00,47.7,42.8,29.74,SSW,203,12.8,14.5,83,0.00,,,0.00,WUHU216HW,2013-10-12 11:55:00,
2013-10-12 07:00:00,47.7,42.8,29.74,SSW,203,8.1,14.5,83,0.00,,,0.00,WUHU216HW,2013-10-12 12:00:00,
2013-10-12 07:05:00,47.7,42.8,29.75,SSW,203,7.4,15.0,83,0.00,,,0.00,WUHU216HW,2013-10-12 12:05:00,
2013-10-12 07:10:00,47.7,42.5,29.75,South,180,12.1,15.0,82,0.00,,,0.00,WUHU216HW,2013-10-12 12:10:00,
2013-10-12 07:15:00,47.7,42.8,29.75,SSW,203,11.9,13.6,83,0.00,,,0.00,WUHU216HW,2013-10-12 12:15:00,
2013-10-12 07:20:00,47.9,42.7,29.75,SSW,203,9.2,11.9,82,0.00,,,0.00,WUHU216HW,2013-10-12 12:20:00,
2013-10-12 07:25:00,48.1,42.8,29.76,SSW,203,13.6,13.6,82,0.00,,,0.00,WUHU216HW,2013-10-12 12:25:00,
2013-10-12 07:30:00,48.2,42.7,29.76,SSW,203,13.9,13.9,81,0.00,,,0.00,WUHU216HW,2013-10-12 12:30:00,
2013-10-12 07:35:00,48.4,43.1,29.76,SSW,203,12.3,13.9,82,0.00,,,0.00,WUHU216HW,2013-10-12 12:35:00,
2013-10-12 07:40:00,48.6,43.0,29.76,SW,225,13.4,15.2,81,0.00,,,0.00,WUHU216HW,2013-10-12 12:40:00,
2013-10-12 07:45:00,48.6,43.0,29.76,SSW,203,13.6,16.3,81,0.00,,,0.00,WUHU216HW,2013-10-12 12:45:00,
2013-10-12 07:50:00,48.6,43.0,29.76,SSW,203,13.9,16.3,81,0.00,,,0.00,WUHU216HW,2013-10-12 12:50:00,
2013-10-12 07:55:00,48.6,43.0,29.76,SSW,203,12.1,13.9,81,0.00,,,0.00,WUHU216HW,2013-10-12 12:55:00,
2013-10-12 08:00:00,48.6,43.0,29.76,SSW,203,11.0,12.3,81,0.00,,,0.00,WUHU216HW,2013-10-12 13:00:00,
2013-10-12 08:05:00,48.4,42.9,29.76,SSW,203,9.2,11.9,81,0.00,,,0.00,WUHU216HW,2013-10-12 13:05:00,
2013-10-12 08:10:00,49.7,43.7,29.76,SSW,203,8.5,11.9,80,0.00,,,0.00,WUHU216HW,2013-10-12 13:10:00,
2013-10-12 08:15:00,50.0,43.4,29.76,SSW,203,9.2,10.7,78,0.00,,,0.00,WUHU216HW,2013-10-12 13:15:00,
2013-10-12 08:20:00,50.0,43.4,29.76,SSW,203,9.2,9.2,78,0.00,,,0.00,WUHU216HW,2013-10-12 13:20:00,
2013-10-12 08:42:00,50.9,43.7,29.77,South,180,9.8,9.8,76,0.00,,,0.00,WUHU216HW,2013-10-12 13:42:00,
2013-10-12 08:47:00,51.5,43.5,29.77,SSW,203,8.7,13.0,74,0.00,,,0.00,WUHU216HW,2013-10-12 13:47:00,
2013-10-12 08:52:00,51.8,43.5,29.77,South,180,15.9,15.9,73,0.00,,,0.00,WUHU216HW,2013-10-12 13:52:00,
2013-10-12 08:57:00,52.2,43.8,29.77,South,180,12.1,15.9,73,0.00,,,0.00,WUHU216HW,2013-10-12 13:57:00,
2013-10-12 09:03:00,52.2,43.8,29.77,South,180,10.5,14.1,73,0.00,,,0.00,WUHU216HW,2013-10-12 14:03:00,
2013-10-12 09:08:00,52.9,44.2,29.77,South,180,13.0,14.8,72,0.00,,,0.00,WUHU216HW,2013-10-12 14:08:00,
2013-10-12 09:13:00,52.7,43.3,29.77,SSW,203,15.9,15.9,70,0.00,,,0.00,WUHU216HW,2013-10-12 14:13:00,
2013-10-12 09:18:00,52.2,43.5,29.78,SSW,203,12.3,17.2,72,0.00,,,0.00,WUHU216HW,2013-10-12 14:18:00,
2013-10-12 09:23:00,51.7,43.0,29.77,SSW,203,11.4,17.2,72,0.00,,,0.00,WUHU216HW,2013-10-12 14:23:00,
2013-10-12 09:28:00,51.5,42.9,29.78,SSW,203,13.4,17.2,72,0.00,,,0.00,WUHU216HW,2013-10-12 14:28:00,
2013-10-12 09:33:00,51.5,43.1,29.78,SSW,203,11.2,17.2,73,0.00,,,0.00,WUHU216HW,2013-10-12 14:33:00,
2013-10-12 09:38:00,51.7,43.7,29.78,SW,225,7.8,16.8,74,0.00,,,0.00,WUHU216HW,2013-10-12 14:38:00,
2013-10-12 09:43:00,52.0,43.0,29.78,SSW,203,11.9,16.8,71,0.00,,,0.00,WUHU216HW,2013-10-12 14:43:00,
2013-10-12 09:48:00,52.6,43.8,29.78,SSW,203,9.6,15.4,72,0.00,,,0.00,WUHU216HW,2013-10-12 14:48:00,
2013-10-12 09:53:00,53.8,43.5,29.78,SW,225,10.3,15.4,68,0.00,,,0.00,WUHU216HW,2013-10-12 14:53:00,
2013-10-12 09:58:00,54.4,44.0,29.79,SSW,203,10.3,14.8,68,0.00,,,0.00,WUHU216HW,2013-10-12 14:58:00,
2013-10-12 10:03:00,54.7,43.6,29.79,WSW,248,12.1,14.8,66,0.00,,,0.00,WUHU216HW,2013-10-12 15:03:00,
2013-10-12 10:08:00,54.0,43.3,29.79,SSW,203,10.1,15.7,67,0.00,,,0.00,WUHU216HW,2013-10-12 15:08:00,
2013-10-12 10:13:00,54.0,42.8,29.79,WSW,248,18.6,18.6,66,0.00,,,0.00,WUHU216HW,2013-10-12 15:13:00,
2013-10-12 10:18:00,53.5,42.4,29.79,WSW,248,16.3,18.6,66,0.00,,,0.00,WUHU216HW,2013-10-12 15:18:00,
2013-10-12 10:23:00,53.1,42.0,29.79,SW,225,18.8,21.3,66,0.00,,,0.00,WUHU216HW,2013-10-12 15:23:00,
2013-10-12 10:28:00,52.9,41.9,29.79,SSW,203,19.9,21.3,66,0.00,,,0.00,WUHU216HW,2013-10-12 15:28:00,
2013-10-12 10:33:00,52.9,42.2,29.79,SW,225,12.3,19.9,67,0.00,,,0.00,WUHU216HW,2013-10-12 15:33:00,
2013-10-12 10:38:00,52.9,42.2,29.79,SSW,203,17.4,18.1,67,0.00,,,0.00,WUHU216HW,2013-10-12 15:38:00,
2013-10-12 10:43:00,52.7,42.1,29.79,SSW,203,19.0,19.2,67,0.00,,,0.00,WUHU216HW,2013-10-12 15:43:00,
2013-10-12 10:48:00,52.9,42.2,29.80,SSW,203,17.2,19.7,67,0.00,,,0.00,WUHU216HW,2013-10-12 15:48:00,
2013-10-12 10:53:00,53.3,42.6,29.79,SW,225,14.5,19.7,67,0.00,,,0.00,WUHU216HW,2013-10-12 15:53:00,
2013-10-12 10:58:00,55.1,43.1,29.79,SW,225,11.2,15.7,64,0.00,,,0.00,WUHU216HW,2013-10-12 15:58:00,
2013-10-12 11:03:00,55.8,43.7,29.80,SSW,203,13.0,17.2,64,0.00,,,0.00,WUHU216HW,2013-10-12 16:03:00,
2013-10-12 11:08:00,55.1,42.7,29.80,WSW,248,16.1,17.2,63,0.00,,,0.00,WUHU216HW,2013-10-12 16:08:00,
2013-10-12 11:13:00,53.6,42.1,29.80,SW,225,13.9,22.4,65,0.00,,,0.00,WUHU216HW,2013-10-12 16:13:00,
2013-10-12 11:18:00,53.3,42.2,29.81,WSW,248,14.8,22.4,66,0.00,,,0.00,WUHU216HW,2013-10-12 16:18:00,
2013-10-12 11:23:00,53.3,41.8,29.81,SW,225,15.7,22.8,65,0.00,,,0.00,WUHU216HW,2013-10-12 16:23:00,
2013-10-12 11:28:00,53.5,42.4,29.81,WSW,248,16.3,22.8,66,0.00,,,0.00,WUHU216HW,2013-10-12 16:28:00,
2013-10-12 11:33:00,53.3,41.8,29.81,West,270,19.2,23.0,65,0.00,,,0.00,WUHU216HW,2013-10-12 16:33:00,
2013-10-12 11:38:00,53.1,41.6,29.81,SW,225,15.0,23.0,65,0.00,,,0.00,WUHU216HW,2013-10-12 16:38:00,
2013-10-12 11:43:00,53.3,42.2,29.82,WSW,248,11.4,17.4,66,0.00,,,0.00,WUHU216HW,2013-10-12 16:43:00,
2013-10-12 11:48:00,53.3,41.8,29.82,WSW,248,16.6,16.6,65,0.00,,,0.00,WUHU216HW,2013-10-12 16:48:00,
2013-10-12 11:53:00,53.5,41.9,29.82,SW,225,13.9,16.6,65,0.00,,,0.00,WUHU216HW,2013-10-12 16:53:00,
2013-10-12 11:58:00,53.5,42.8,29.82,SW,225,10.3,16.6,67,0.00,,,0.00,WUHU216HW,2013-10-12 16:58:00,
2013-10-12 12:03:00,53.5,42.4,29.82,SW,225,16.3,16.3,66,0.00,,,0.00,WUHU216HW,2013-10-12 17:03:00,
2013-10-12 12:08:00,53.6,42.9,29.82,SW,225,12.1,16.3,67,0.00,,,0.00,WUHU216HW,2013-10-12 17:08:00,
2013-10-12 12:13:00,53.8,42.7,29.83,SW,225,14.5,16.3,66,0.00,,,0.00,WUHU216HW,2013-10-12 17:13:00,
2013-10-12 12:18:00,53.8,41.9,29.83,WSW,248,15.4,21.7,64,0.00,,,0.00,WUHU216HW,2013-10-12 17:18:00,
2013-10-12 12:23:00,54.2,41.9,29.83,WSW,248,19.7,21.7,63,0.00,,,0.00,WUHU216HW,2013-10-12 17:23:00,
2013-10-12 12:28:00,54.2,41.1,29.83,WSW,248,21.0,22.4,61,0.00,,,0.00,WUHU216HW,2013-10-12 17:28:00,
2013-10-12 12:33:00,54.2,41.4,29.83,WSW,248,17.2,22.4,62,0.00,,,0.00,WUHU216HW,2013-10-12 17:33:00,
2013-10-12 12:38:00,54.4,41.6,29.84,WSW,248,18.1,20.8,62,0.00,,,0.00,WUHU216HW,2013-10-12 17:38:00,
2013-10-12 12:43:00,54.2,41.4,29.84,WSW,248,16.3,23.5,62,0.00,,,0.00,WUHU216HW,2013-10-12 17:43:00,
2013-10-12 12:48:00,54.2,41.9,29.84,WSW,248,12.1,23.5,63,0.00,,,0.00,WUHU216HW,2013-10-12 17:48:00,
2013-10-12 12:53:00,54.4,41.6,29.84,SW,225,14.5,17.2,62,0.00,,,0.00,WUHU216HW,2013-10-12 17:53:00,
2013-10-12 12:58:00,54.5,42.6,29.84,West,270,11.6,16.6,64,0.00,,,0.00,WUHU216HW,2013-10-12 17:58:00,
2013-10-12 13:03:00,54.4,41.2,29.84,SW,225,22.1,22.1,61,0.00,,,0.00,WUHU216HW,2013-10-12 18:03:00,
2013-10-12 13:08:00,54.0,40.5,29.84,SW,225,20.8,23.0,60,0.00,,,0.00,WUHU216HW,2013-10-12 18:08:00,
2013-10-12 13:13:00,53.8,40.7,29.84,SW,225,18.6,24.2,61,0.00,,,0.00,WUHU216HW,2013-10-12 18:13:00,
2013-10-12 13:18:00,53.8,41.5,29.84,WSW,248,13.0,24.2,63,0.00,,,0.00,WUHU216HW,2013-10-12 18:18:00,
2013-10-12 13:23:00,54.4,42.0,29.84,NW,315,12.8,20.1,63,0.00,,,0.00,WUHU216HW,2013-10-12 18:23:00,
2013-10-12 13:28:00,54.0,40.5,29.84,WSW,248,23.0,23.0,60,0.00,,,0.00,WUHU216HW,2013-10-12 18:28:00,
2013-10-12 13:33:00,53.6,41.0,29.84,WSW,248,21.3,23.0,62,0.00,,,0.00,WUHU216HW,2013-10-12 18:33:00,
2013-10-12 13:38:00,53.6,41.0,29.85,West,270,17.9,23.3,62,0.00,,,0.00,WUHU216HW,2013-10-12 18:38:00,
2013-10-12 13:43:00,53.8,40.7,29.85,West,270,20.8,23.3,61,0.00,,,0.00,WUHU216HW,2013-10-12 18:43:00,
2013-10-12 13:48:00,53.8,41.1,29.85,WSW,248,17.0,22.1,62,0.00,,,0.00,WUHU216HW,2013-10-12 18:48:00,
2013-10-12 13:53:00,53.5,40.8,29.85,West,270,20.8,22.1,62,0.00,,,0.00,WUHU216HW,2013-10-12 18:53:00,
2013-10-12 13:58:00,53.5,40.8,29.86,WSW,248,21.9,23.7,62,0.00,,,0.00,WUHU216HW,2013-10-12 18:58:00,
2013-10-12 14:03:00,52.9,40.2,29.86,WSW,248,21.3,26.2,62,0.00,,,0.00,WUHU216HW,2013-10-12 19:03:00,
2013-10-12 14:08:00,52.7,40.9,29.86,SW,225,20.1,26.2,64,0.00,,,0.00,WUHU216HW,2013-10-12 19:08:00,
2013-10-12 14:13:00,52.6,41.5,29.86,WSW,248,18.8,25.5,66,0.00,,,0.00,WUHU216HW,2013-10-12 19:13:00,
2013-10-12 14:18:00,52.6,41.1,29.87,WSW,248,23.3,31.5,65,0.00,,,0.00,WUHU216HW,2013-10-12 19:18:00,
2013-10-12 14:23:00,52.6,41.1,29.87,WSW,248,21.9,31.5,65,0.00,,,0.00,WUHU216HW,2013-10-12 19:23:00,
2013-10-12 14:28:00,52.7,41.3,29.88,WSW,248,25.3,28.2,65,0.00,,,0.00,WUHU216HW,2013-10-12 19:28:00,
2013-10-12 14:33:00,53.1,42.0,29.88,West,270,29.8,29.8,66,0.00,,,0.00,WUHU216HW,2013-10-12 19:33:00,
2013-10-12 14:38:00,52.0,42.2,29.88,West,270,18.6,29.8,69,0.00,,,0.00,WUHU216HW,2013-10-12 19:38:00,
2013-10-12 14:43:00,51.5,41.3,29.88,West,270,23.5,25.1,68,0.00,,,0.00,WUHU216HW,2013-10-12 19:43:00,
2013-10-12 14:48:00,51.5,41.7,29.89,West,270,17.7,25.1,69,0.00,,,0.00,WUHU216HW,2013-10-12 19:48:00,
2013-10-12 14:53:00,51.5,41.3,29.89,West,270,20.6,23.7,68,0.00,,,0.00,WUHU216HW,2013-10-12 19:53:00,
2013-10-12 14:58:00,51.1,41.0,29.89,WNW,293,18.6,26.6,68,0.00,,,0.00,WUHU216HW,2013-10-12 19:58:00,
2013-10-12 15:03:00,51.1,41.8,29.89,West,270,11.9,26.6,70,0.00,,,0.00,WUHU216HW,2013-10-12 20:03:00,
2013-10-12 15:08:00,51.1,41.0,29.89,West,270,23.3,23.5,68,0.00,,,0.00,WUHU216HW,2013-10-12 20:08:00,
2013-10-12 15:13:00,51.5,41.3,29.89,West,270,23.7,25.9,68,0.00,,,0.00,WUHU216HW,2013-10-12 20:13:00,
2013-10-12 15:18:00,52.2,41.1,29.89,WSW,248,22.4,25.9,66,0.00,,,0.00,WUHU216HW,2013-10-12 20:18:00,
2013-10-12 15:23:00,52.0,41.0,29.90,WSW,248,23.3,23.7,66,0.00,,,0.00,WUHU216HW,2013-10-12 20:23:00,
2013-10-12 15:28:00,52.0,41.0,29.90,WSW,248,19.0,24.2,66,0.00,,,0.00,WUHU216HW,2013-10-12 20:28:00,
2013-10-12 15:33:00,52.4,41.3,29.90,West,270,13.4,24.2,66,0.00,,,0.00,WUHU216HW,2013-10-12 20:33:00,
2013-10-12 15:38:00,52.2,41.1,29.90,West,270,18.1,22.6,66,0.00,,,0.00,WUHU216HW,2013-10-12 20:38:00,
2013-10-12 15:43:00,52.6,41.5,29.90,WNW,293,10.5,22.6,66,0.00,,,0.00,WUHU216HW,2013-10-12 20:43:00,
2013-10-12 15:48:00,52.6,41.5,29.90,West,270,17.7,18.8,66,0.00,,,0.00,WUHU216HW,2013-10-12 20:48:00,
2013-10-12 15:53:00,52.9,41.9,29.90,West,270,12.8,18.6,66,0.00,,,0.00,WUHU216HW,2013-10-12 20:53:00,
2013-10-12 15:58:00,53.5,41.6,29.90,West,270,16.1,17.0,64,0.00,,,0.00,WUHU216HW,2013-10-12 20:58:00,
2013-10-12 16:03:00,53.5,41.6,29.90,West,270,14.5,17.0,64,0.00,,,0.00,WUHU216HW,2013-10-12 21:03:00,
2013-10-12 16:08:00,53.5,41.6,29.90,WNW,293,9.2,14.8,64,0.00,,,0.00,WUHU216HW,2013-10-12 21:08:00,
2013-10-12 16:13:00,53.6,41.8,29.90,SSE,158,10.5,14.8,64,0.00,,,0.00,WUHU216HW,2013-10-12 21:13:00,
2013-10-12 16:18:00,53.8,41.9,29.90,West,270,15.2,15.2,64,0.00,,,0.00,WUHU216HW,2013-10-12 21:18:00,
2013-10-12 16:23:00,54.4,41.6,29.91,WSW,248,16.3,17.2,62,0.00,,,0.00,WUHU216HW,2013-10-12 21:23:00,
2013-10-12 16:28:00,54.2,41.1,29.91,WNW,293,17.9,17.9,61,0.00,,,0.00,WUHU216HW,2013-10-12 21:28:00,
2013-10-12 16:33:00,54.5,41.3,29.91,West,270,15.7,17.9,61,0.00,,,0.00,WUHU216HW,2013-10-12 21:33:00,
2013-10-12 16:38:00,54.7,41.5,29.91,West,270,8.7,16.3,61,0.00,,,0.00,WUHU216HW,2013-10-12 21:38:00,
2013-10-12 16:43:00,54.5,41.8,29.91,WNW,293,14.8,14.8,62,0.00,,,0.00,WUHU216HW,2013-10-12 21:43:00,
2013-10-12 16:48:00,54.7,41.1,29.91,WSW,248,14.1,14.8,60,0.00,,,0.00,WUHU216HW,2013-10-12 21:48:00,
2013-10-12 16:53:00,55.1,41.0,29.91,WSW,248,12.1,14.3,59,0.00,,,0.00,WUHU216HW,2013-10-12 21:53:00,
2013-10-12 16:58:00,55.3,39.7,29.92,West,270,17.2,17.9,56,0.00,,,0.00,WUHU216HW,2013-10-12 21:58:00,
2013-10-12 17:03:00,55.4,39.9,29.92,West,270,6.9,17.9,56,0.00,,,0.00,WUHU216HW,2013-10-12 22:03:00,
2013-10-12 17:08:00,55.4,41.3,29.92,NW,315,7.6,16.3,59,0.00,,,0.00,WUHU216HW,2013-10-12 22:08:00,
2013-10-12 17:13:00,55.8,41.7,29.93,NW,315,9.2,11.9,59,0.00,,,0.00,WUHU216HW,2013-10-12 22:13:00,
2013-10-12 17:18:00,56.9,43.2,29.92,NNW,338,7.6,11.9,60,0.00,,,0.00,WUHU216HW,2013-10-12 22:18:00,
2013-10-12 17:23:00,58.7,43.5,29.92,NW,315,6.5,9.8,57,0.00,,,0.00,WUHU216HW,2013-10-12 22:23:00,
2013-10-12 17:28:00,58.0,42.9,29.93,WNW,293,6.9,9.8,57,0.00,,,0.00,WUHU216HW,2013-10-12 22:28:00,
2013-10-12 17:33:00,57.6,42.0,29.93,NNW,338,6.3,7.8,56,0.00,,,0.00,WUHU216HW,2013-10-12 22:33:00,
2013-10-12 17:38:00,56.9,41.8,29.93,SW,225,4.7,7.8,57,0.00,,,0.00,WUHU216HW,2013-10-12 22:38:00,
2013-10-12 17:43:00,57.4,41.9,29.93,WNW,293,5.6,10.5,56,0.00,,,0.00,WUHU216HW,2013-10-12 22:43:00,
2013-10-12 17:48:00,58.0,42.3,29.94,West,270,6.9,10.5,56,0.00,,,0.00,WUHU216HW,2013-10-12 22:48:00,
2013-10-12 17:53:00,56.5,42.0,29.94,North,0,2.5,10.3,58,0.00,,,0.00,WUHU216HW,2013-10-12 22:53:00,
2013-10-12 17:58:00,55.8,42.1,29.94,West,270,8.9,10.3,60,0.00,,,0.00,WUHU216HW,2013-10-12 22:58:00,
2013-10-12 18:03:00,55.3,42.0,29.95,WNW,293,9.6,10.5,61,0.00,,,0.00,WUHU216HW,2013-10-12 23:03:00,
2013-10-12 18:08:00,55.1,42.3,29.95,WNW,293,4.7,10.5,62,0.00,,,0.00,WUHU216HW,2013-10-12 23:08:00,
2013-10-12 18:13:00,55.3,42.9,29.95,NW,315,4.7,7.2,63,0.00,,,0.00,WUHU216HW,2013-10-12 23:13:00,
2013-10-12 18:18:00,55.3,42.9,29.95,NNE,23,6.3,8.5,63,0.00,,,0.00,WUHU216HW,2013-10-12 23:18:00,
2013-10-12 18:23:00,55.1,42.7,29.96,WNW,293,5.4,10.5,63,0.00,,,0.00,WUHU216HW,2013-10-12 23:23:00,
2013-10-12 18:28:00,54.4,42.4,29.96,WNW,293,6.5,10.5,64,0.00,,,0.00,WUHU216HW,2013-10-12 23:28:00,
2013-10-12 18:33:00,54.0,42.0,29.96,NW,315,7.6,8.9,64,0.00,,,0.00,WUHU216HW,2013-10-12 23:33:00,
2013-10-12 18:38:00,53.5,41.9,29.97,NW,315,1.6,7.6,65,0.00,,,0.00,WUHU216HW,2013-10-12 23:38:00,
2013-10-12 18:43:00,53.1,41.6,29.97,NW,315,6.0,6.5,65,0.00,,,0.00,WUHU216HW,2013-10-12 23:43:00,
2013-10-12 18:48:00,52.9,41.9,29.97,NW,315,7.4,7.4,66,0.00,,,0.00,WUHU216HW,2013-10-12 23:48:00,
2013-10-12 18:53:00,52.7,41.7,29.97,NW,315,3.1,7.6,66,0.00,,,0.00,WUHU216HW,2013-10-12 23:53:00,
2013-10-12 18:58:00,52.4,41.8,29.97,West,270,3.4,8.9,67,0.00,,,0.00,WUHU216HW,2013-10-12 23:58:00,
2013-10-12 19:03:00,52.2,41.1,29.97,NNW,338,2.0,8.9,66,0.00,,,0.00,WUHU216HW,2013-10-13 00:03:00,
2013-10-12 19:08:00,52.0,41.4,29.98,North,0,4.3,4.3,67,0.00,,,0.00,WUHU216HW,2013-10-13 00:08:00,
2013-10-12 19:13:00,51.8,41.2,29.98,West,270,2.5,4.5,67,0.00,,,0.00,WUHU216HW,2013-10-13 00:13:00,
2013-10-12 19:18:00,51.7,41.5,29.98,West,270,4.3,6.3,68,0.00,,,0.00,WUHU216HW,2013-10-13 00:18:00,
2013-10-12 19:23:00,51.1,41.0,29.99,West,270,4.5,6.3,68,0.00,,,0.00,WUHU216HW,2013-10-13 00:23:00,
2013-10-12 19:28:00,50.6,40.4,29.99,West,270,3.6,5.4,68,0.00,,,0.00,WUHU216HW,2013-10-13 00:28:00,
2013-10-12 19:33:00,50.2,40.5,29.99,WNW,293,4.3,4.7,69,0.00,,,0.00,WUHU216HW,2013-10-13 00:33:00,
2013-10-12 19:38:00,50.2,40.9,29.99,West,270,5.6,5.6,70,0.00,,,0.00,WUHU216HW,2013-10-13 00:38:00,
2013-10-12 19:43:00,50.0,40.7,29.99,WSW,248,4.7,5.6,70,0.00,,,0.00,WUHU216HW,2013-10-13 00:43:00,
2013-10-12 19:48:00,49.5,40.9,30.00,WSW,248,4.3,5.1,72,0.00,,,0.00,WUHU216HW,2013-10-13 00:48:00,
2013-10-12 19:53:00,49.1,40.5,30.00,SW,225,4.7,4.7,72,0.00,,,0.00,WUHU216HW,2013-10-13 00:53:00,
2013-10-12 19:58:00,49.0,40.3,30.00,WSW,248,3.8,4.7,72,0.00,,,0.00,WUHU216HW,2013-10-13 00:58:00,
2013-10-12 20:03:00,48.6,40.2,30.00,SW,225,3.1,4.7,73,0.00,,,0.00,WUHU216HW,2013-10-13 01:03:00,
2013-10-12 20:08:00,48.6,40.2,30.00,SW,225,3.4,3.8,73,0.00,,,0.00,WUHU216HW,2013-10-13 01:08:00,
2013-10-12 20:13:00,49.0,40.3,30.00,SSW,203,3.6,4.0,72,0.00,,,0.00,WUHU216HW,2013-10-13 01:13:00,
2013-10-12 20:18:00,49.1,40.5,30.00,SSW,203,4.0,4.0,72,0.00,,,0.00,WUHU216HW,2013-10-13 01:18:00,
2013-10-12 20:23:00,49.1,40.5,30.00,SW,225,3.4,4.7,72,0.00,,,0.00,WUHU216HW,2013-10-13 01:23:00,
2013-10-12 20:28:00,49.1,40.5,30.01,SW,225,2.5,4.7,72,0.00,,,0.00,WUHU216HW,2013-10-13 01:28:00,
2013-10-12 20:33:00,49.0,40.3,30.01,SW,225,2.5,3.1,72,0.00,,,0.00,WUHU216HW,2013-10-13 01:33:00,
2013-10-12 20:38:00,48.8,40.4,30.01,SW,225,1.8,2.5,73,0.00,,,0.00,WUHU216HW,2013-10-13 01:38:00,
2013-10-12 20:43:00,48.6,40.2,30.01,SW,225,1.6,2.5,73,0.00,,,0.00,WUHU216HW,2013-10-13 01:43:00,
2013-10-12 20:48:00,48.6,40.2,30.01,SW,225,2.5,2.5,73,0.00,,,0.00,WUHU216HW,2013-10-13 01:48:00,
2013-10-12 20:53:00,48.4,39.8,30.01,WSW,248,3.6,3.6,72,0.00,,,0.00,WUHU216HW,2013-10-13 01:53:00,
2013-10-12 20:57:00,48.2,39.6,30.02,WSW,248,3.8,3.8,72,0.00,,,0.00,WUHU216HW,2013-10-13 01:57:00,
2013-10-12 21:02:00,48.1,39.8,30.02,SW,225,3.8,4.5,73,0.00,,,0.00,WUHU216HW,2013-10-13 02:02:00,
2013-10-12 21:07:00,47.7,39.4,30.02,SW,225,3.4,4.5,73,0.00,,,0.00,WUHU216HW,2013-10-13 02:07:00,
2013-10-12 21:12:00,47.3,39.4,30.02,SW,225,3.4,3.4,74,0.00,,,0.00,WUHU216HW,2013-10-13 02:12:00,
2013-10-12 21:17:00,47.3,39.4,30.02,SW,225,3.4,3.4,74,0.00,,,0.00,WUHU216HW,2013-10-13 02:17:00,
2013-10-12 21:22:00,47.3,39.4,30.03,WSW,248,3.8,4.0,74,0.00,,,0.00,WUHU216HW,2013-10-13 02:22:00,
2013-10-12 21:27:00,47.2,39.2,30.03,WSW,248,4.7,4.7,74,0.00,,,0.00,WUHU216HW,2013-10-13 02:27:00,
2013-10-12 21:32:00,47.2,39.2,30.03,West,270,5.1,5.1,74,0.00,,,0.00,WUHU216HW,2013-10-13 02:32:00,
2013-10-12 21:37:00,47.0,39.2,30.03,WSW,248,4.7,5.1,74,0.00,,,0.00,WUHU216HW,2013-10-13 02:37:00,
2013-10-12 21:42:00,46.6,38.8,30.03,WSW,248,4.5,5.1,74,0.00,,,0.00,WUHU216HW,2013-10-13 02:42:00,
2013-10-12 21:47:00,46.3,38.8,30.04,SW,225,4.7,5.1,75,0.00,,,0.00,WUHU216HW,2013-10-13 02:47:00,
2013-10-12 21:52:00,45.9,38.4,30.04,SW,225,6.3,6.3,75,0.00,,,0.00,WUHU216HW,2013-10-13 02:52:00,
2013-10-12 21:57:00,46.1,38.6,30.04,SW,225,5.4,6.5,75,0.00,,,0.00,WUHU216HW,2013-10-13 02:57:00,
2013-10-12 22:02:00,46.1,38.6,30.04,SW,225,5.8,6.5,75,0.00,,,0.00,WUHU216HW,2013-10-13 03:02:00,
2013-10-12 22:07:00,46.1,39.0,30.04,WSW,248,6.3,6.3,76,0.00,,,0.00,WUHU216HW,2013-10-13 03:07:00,
2013-10-12 22:12:00,45.7,39.0,30.05,WSW,248,5.4,6.3,77,0.00,,,0.00,WUHU216HW,2013-10-13 03:12:00,
2013-10-12 22:17:00,45.5,38.8,30.05,WSW,248,5.4,6.3,77,0.00,,,0.00,WUHU216HW,2013-10-13 03:17:00,
2013-10-12 22:22:00,45.2,38.4,30.05,WSW,248,4.3,6.3,77,0.00,,,0.00,WUHU216HW,2013-10-13 03:22:00,
2013-10-12 22:27:00,45.0,38.3,30.05,WSW,248,4.9,6.5,77,0.00,,,0.00,WUHU216HW,2013-10-13 03:27:00,
2013-10-12 22:32:00,44.8,38.1,30.05,WSW,248,5.4,6.5,77,0.00,,,0.00,WUHU216HW,2013-10-13 03:32:00,
2013-10-12 22:37:00,44.6,37.9,30.05,WSW,248,5.6,6.0,77,0.00,,,0.00,WUHU216HW,2013-10-13 03:37:00,
2013-10-12 22:42:00,44.5,37.7,30.05,WSW,248,6.7,6.7,77,0.00,,,0.00,WUHU216HW,2013-10-13 03:42:00,
2013-10-12 22:47:00,44.1,37.7,30.05,WSW,248,6.7,6.9,78,0.00,,,0.00,WUHU216HW,2013-10-13 03:47:00,
2013-10-12 22:52:00,44.1,37.7,30.05,WSW,248,5.4,6.9,78,0.00,,,0.00,WUHU216HW,2013-10-13 03:52:00,
2013-10-12 22:57:00,44.1,37.4,30.05,WSW,248,5.6,6.0,77,0.00,,,0.00,WUHU216HW,2013-10-13 03:57:00,
2013-10-12 23:01:00,44.1,37.4,30.05,WSW,248,5.8,5.8,77,0.00,,,0.00,WUHU216HW,2013-10-13 04:01:00,
2013-10-12 23:06:00,43.7,37.4,30.06,WSW,248,5.8,6.7,78,0.00,,,0.00,WUHU216HW,2013-10-13 04:06:00,
2013-10-12 23:11:00,43.7,37.4,30.06,SW,225,4.0,6.7,78,0.00,,,0.00,WUHU216HW,2013-10-13 04:11:00,
2013-10-12 23:16:00,43.6,37.4,30.06,SW,225,4.3,6.3,79,0.00,,,0.00,WUHU216HW,2013-10-13 04:16:00,
2013-10-12 23:21:00,43.2,37.7,30.07,WSW,248,4.9,5.1,81,0.00,,,0.00,WUHU216HW,2013-10-13 04:21:00,
2013-10-12 23:26:00,43.2,37.7,30.07,WSW,248,4.7,5.1,81,0.00,,,0.00,WUHU216HW,2013-10-13 04:26:00,
2013-10-12 23:31:00,43.0,37.5,30.07,WSW,248,4.0,4.9,81,0.00,,,0.00,WUHU216HW,2013-10-13 04:31:00,
2013-10-12 23:36:00,43.0,37.3,30.07,WSW,248,4.3,4.5,80,0.00,,,0.00,WUHU216HW,2013-10-13 04:36:00,
2013-10-12 23:41:00,43.0,37.3,30.07,WSW,248,4.7,4.7,80,0.00,,,0.00,WUHU216HW,2013-10-13 04:41:00,
2013-10-12 23:46:00,42.8,36.7,30.07,West,270,3.6,4.7,79,0.00,,,0.00,WUHU216HW,2013-10-13 04:46:00,
2013-10-12 23:51:00,42.8,36.7,30.07,West,270,3.8,4.7,79,0.00,,,0.00,WUHU216HW,2013-10-13 04:51:00,
2013-10-12 23:56:00,42.8,36.7,30.08,WSW,248,4.0,4.7,79,0.00,,,0.00,WUHU216HW,2013-10-13 04:56:00,